Weather History for Minden, LA

Change the Weather History Date:

Tuesday, February 12, 2013

  Actual Average (KBAD) Record (KBAD)
Temperature  
Mean Temperature 47 °F -  
Max Temperature 49 °F 58 °F 71 °F (2008)
Min Temperature 45 °F 40 °F 21 °F (2011)
Degree Days  
Heating Degree Days 18    
Moisture  
Dew Point 44 °F    
Average Humidity 89    
Maximum Humidity 93    
Minimum Humidity 79    
Precipitation  
Precipitation 0.21 in - - ()
Sea Level Pressure  
Sea Level Pressure 29.93 in    
Wind  
Wind Speed 5 mph (ENE)    
Max Wind Speed 15 mph    
Max Gust Speed 36 mph    
Visibility 9 miles    
Events Rain , Thunderstorm    
Averages and records for this station are not official NWS values.
T = Trace of Precipitation, MM = Missing Value Source: NWS Daily Summary

Daily Weather History Graph

Daily Weather History Graph

Search for Another Location

Airport:

Trip Planner

Search our weather history database for the weather conditions in past years. The results will help you decide how hot, cold, wet, or windy it might be!

Date:

Astronomy

Feb. 12, 2013 Rise Set
Actual Time 6:58 AM CST 5:56 PM CST
Civil Twilight 6:33 AM CST 6:21 PM CST
Nautical Twilight 6:04 AM CST 6:50 PM CST
Astronomical Twilight 5:35 AM CST 7:19 PM CST
Moon 8:08 AM CST (2/12) 8:44 PM CST (2/12)
Length of Visible Light 11h 48m
Length of Day
10h 57m
Waxing Crescent, 7% of the Moon is Illuminated
Feb 12
Waxing Crescent
Feb 17
First Quarter
Feb 25
Full
Mar 4
Last Quarter
Mar 11
New

Hourly Weather History & Observations

Time (CST) Temp. Windchill Dew Point Humidity Pressure Visibility Wind Dir Wind Speed Gust Speed Precip Events Conditions
12:15 AM 49.5 °F - 45.0 °F 84% 30.12 in 10.0 mi ENE 3.5 mph - N/A Rain Light Rain
12:35 AM 49.1 °F - 45.5 °F 87% 30.08 in 10.0 mi East 6.9 mph - 0.01 in Rain Light Rain
12:55 AM 49.5 °F - 44.6 °F 83% 30.09 in 10.0 mi Calm Calm - 0.01 in   Overcast
1:15 AM 49.3 °F - 44.4 °F 83% 30.05 in 10.0 mi East 9.2 mph - N/A Rain Light Rain
1:35 AM 49.1 °F - 42.8 °F 79% 30.04 in 10.0 mi East 5.8 mph - N/A   Scattered Clouds
1:55 AM 48.7 °F - 43.0 °F 80% 30.03 in 10.0 mi Calm Calm - N/A   Clear
2:15 AM 48.4 °F - 43.2 °F 82% 30.03 in 10.0 mi Calm Calm - N/A   Clear
2:35 AM 48.0 °F - 43.5 °F 84% 30.03 in 10.0 mi Calm Calm - N/A   Clear
2:55 AM 47.3 °F - 43.7 °F 87% 30.02 in 10.0 mi Calm Calm - N/A   Clear
3:15 AM 47.7 °F - 44.6 °F 89% 30.00 in 10.0 mi East 5.8 mph - N/A   Clear
3:35 AM 48.2 °F - 45.1 °F 89% 29.99 in 10.0 mi ENE 4.6 mph - N/A   Clear
3:55 AM 48.2 °F - 45.5 °F 90% 29.98 in 10.0 mi ENE 5.8 mph - N/A   Scattered Clouds
4:15 AM 48.4 °F - 45.5 °F 90% 29.99 in 10.0 mi East 4.6 mph - N/A   Overcast
4:35 AM 49.1 °F - 45.7 °F 88% 30.02 in 10.0 mi East 4.6 mph - N/A   Overcast
4:55 AM 48.7 °F - 45.5 °F 89% 29.98 in 10.0 mi East 8.1 mph - N/A   Mostly Cloudy
5:15 AM 48.7 °F - 45.5 °F 89% 29.97 in 10.0 mi East 10.4 mph - N/A   Scattered Clouds
5:35 AM 49.1 °F - 45.5 °F 87% 29.96 in 10.0 mi East 9.2 mph - N/A   Mostly Cloudy
5:55 AM 49.1 °F - 45.5 °F 87% 29.94 in 10.0 mi NE 6.9 mph - N/A   Light Drizzle
6:15 AM 49.1 °F - 45.5 °F 87% 29.96 in 2.5 mi NNE 4.6 mph - 0.01 in Rain Rain
6:35 AM 48.7 °F - 45.7 °F 89% 29.95 in 10.0 mi ENE 5.8 mph - 0.01 in Rain Light Rain
6:55 AM 48.7 °F - 45.5 °F 89% 29.93 in 10.0 mi East 9.2 mph 18.4 mph 0.01 in   Overcast
7:15 AM 49.1 °F - 45.7 °F 88% 29.96 in 10.0 mi North 6.9 mph - N/A Thunderstorm Overcast
7:35 AM 48.7 °F - 45.9 °F 90% 29.94 in 4.0 mi NE 5.8 mph - 0.04 in Rain Heavy Rain
7:55 AM 48.2 °F - 45.5 °F 90% 29.89 in 10.0 mi ENE 10.4 mph 18.4 mph 0.06 in Rain Light Rain
8:15 AM 48.6 °F - 45.9 °F 90% 29.99 in 10.0 mi North 13.8 mph 35.7 mph N/A Thunderstorm Overcast
8:35 AM 48.2 °F - 45.1 °F 89% 29.97 in 10.0 mi ENE 3.5 mph 18.4 mph N/A Rain Light Rain
8:55 AM 48.2 °F - 45.1 °F 89% 29.92 in 5.0 mi East 15.0 mph 23.0 mph 0.02 in Rain , Thunderstorm Light Thunderstorms and Rain
9:15 AM 48.2 °F - 45.1 °F 89% 29.92 in 10.0 mi NE 6.9 mph - 0.01 in Rain Rain
9:35 AM 48.2 °F - 45.0 °F 89% 29.94 in 5.0 mi NE 9.2 mph - 0.03 in Rain Heavy Rain
9:55 AM 47.8 °F - 44.8 °F 89% 29.92 in 10.0 mi ENE 8.1 mph 18.4 mph 0.04 in Rain Light Rain
10:15 AM 47.7 °F - 44.6 °F 89% 29.91 in 10.0 mi NNE 6.9 mph - N/A Rain Light Rain
10:35 AM 47.7 °F - 44.6 °F 89% 29.93 in 10.0 mi ENE 5.8 mph - N/A Rain Light Rain
10:55 AM 47.8 °F - 44.6 °F 89% 29.92 in 10.0 mi ENE 5.8 mph - 0.03 in Rain Light Rain
11:15 AM 47.5 °F - 44.6 °F 90% 29.92 in 10.0 mi NNE 5.8 mph - N/A   Overcast
11:35 AM 47.3 °F - 44.2 °F 89% 29.90 in 10.0 mi ENE 5.8 mph - 0.01 in Rain Rain
11:55 AM 47.7 °F - 44.8 °F 90% 29.89 in 7.0 mi ENE 6.9 mph - 0.01 in   Light Drizzle
12:15 PM 47.3 °F - 44.2 °F 89% 29.92 in 7.0 mi Calm Calm - N/A   Light Drizzle
12:55 PM 47.8 °F - 44.4 °F 88% 29.88 in 10.0 mi ENE 6.9 mph 17.3 mph 0.03 in   Overcast
1:15 PM 47.3 °F - 44.1 °F 88% 29.86 in 10.0 mi ENE 9.2 mph - N/A   Overcast
1:35 PM 47.1 °F - 43.7 °F 88% 29.87 in 10.0 mi NE 8.1 mph - N/A   Overcast
1:55 PM 46.9 °F - 43.7 °F 88% 29.87 in 10.0 mi NNE 3.5 mph - N/A   Overcast
2:15 PM 47.3 °F - 44.2 °F 89% 29.85 in 3.0 mi ENE 5.8 mph - N/A Rain Light Rain
2:35 PM 47.3 °F - 44.6 °F 90% 29.85 in 4.0 mi ENE 6.9 mph - N/A   Overcast
2:55 PM 47.3 °F - 44.6 °F 90% 29.84 in 4.0 mi ENE 4.6 mph - N/A   Overcast
3:15 PM 47.3 °F - 44.6 °F 90% 29.84 in 5.0 mi ENE 5.8 mph - N/A   Overcast
3:55 PM 47.3 °F - 44.2 °F 89% 29.84 in 10.0 mi NE 4.6 mph - N/A   Overcast
4:15 PM 46.9 °F - 43.9 °F 89% 29.83 in 10.0 mi ENE 6.9 mph - N/A   Overcast
4:55 PM 46.6 °F - 43.7 °F 90% 29.85 in 10.0 mi ENE 4.6 mph - N/A   Overcast
5:15 PM 46.4 °F - 43.2 °F 88% 29.84 in 10.0 mi Calm Calm - N/A   Overcast
5:35 PM 46.2 °F - 43.3 °F 90% 29.85 in 7.0 mi Calm Calm - N/A   Overcast
5:55 PM 46.0 °F - 43.3 °F 90% 29.85 in 7.0 mi Calm Calm - N/A   Overcast
6:15 PM 45.9 °F - 43.3 °F 91% 29.86 in 4.0 mi Calm Calm - N/A   Overcast
6:35 PM 46.0 °F 44.8 °F 43.9 °F 92% 29.84 in 4.0 mi ENE 3.5 mph - N/A   Overcast
6:55 PM 45.5 °F - 43.3 °F 92% 29.85 in 7.0 mi Calm Calm - N/A   Overcast
7:15 PM 45.5 °F - 43.2 °F 92% 29.86 in 10.0 mi Calm Calm - N/A   Overcast
7:35 PM 45.5 °F - 43.0 °F 91% 29.88 in 10.0 mi Calm Calm - N/A   Overcast
7:55 PM 45.5 °F - 43.3 °F 92% 29.90 in 10.0 mi Calm Calm - N/A   Overcast
8:15 PM 45.5 °F - 43.7 °F 93% 29.90 in 5.0 mi Calm Calm - N/A   Overcast
8:35 PM 45.5 °F - 43.7 °F 93% 29.90 in 3.0 mi Calm Calm - N/A   Overcast
8:55 PM 45.5 °F - 43.7 °F 93% 29.89 in 5.0 mi Calm Calm - N/A   Overcast
9:15 PM 45.5 °F - 43.7 °F 93% 29.90 in 10.0 mi Calm Calm - N/A   Overcast
9:35 PM 45.5 °F - 43.7 °F 93% 29.91 in 10.0 mi Calm Calm - N/A   Overcast
9:55 PM 45.5 °F - 43.7 °F 93% 29.91 in 10.0 mi Calm Calm - N/A   Overcast
10:15 PM 45.7 °F - 43.7 °F 93% 29.91 in 10.0 mi Calm Calm - N/A   Overcast
10:35 PM 45.7 °F - 43.7 °F 93% 29.90 in 10.0 mi Calm Calm - N/A   Overcast
10:55 PM 45.9 °F - 44.1 °F 93% 29.91 in 10.0 mi Calm Calm - N/A   Overcast
11:35 PM 45.9 °F - 44.1 °F 93% 29.90 in 10.0 mi Calm Calm - N/A   Overcast
11:55 PM 45.7 °F 44.4 °F 43.9 °F 93% 29.89 in 10.0 mi West 3.5 mph - N/A   Overcast